Location: Camaret
(48.2753°N, 4.5961°W)
Time: 04:24:35
(UTC+00:00)

Cosmos 1980 Rocket - Pass Details

Date: 29 October 2020
Orbit: 831 x 848 km, 71.0° (Epoch: 01 December)

Event Time Altitude Azimuth Distance (km) Brightness Sun altitude
Rises 19:12:18 0° 194° (SSW) 3,376 5.5 -21.9°
Reaches altitude 10° 19:14:46 10° 191° (SSW) 2,444 4.7 -22.3°
Maximum altitude 19:20:16 62° 112° (ESE) 938 2.1 -23.2°
Enters shadow 19:21:16 53° 68° (ENE) 1,023 2.2 -23.4°
